[TLELIST] Archives

 

[list_settings.list_name] Current TLEs

November 7th 2010 PST

HST 1 20580U 90037B 10307.67721778 .00000548 00000-0 29018-4 0 6718 2 20580 028.4691 049.1646 0003439 240.8916 119.1353 15.01080128925731 ISS (ZARYA) 1 25544U 98067A 10310.54119213 .00026002 00000-0 19500-3 0 2240 2 25544 051.6464 222.2011 0007925 164.1416 204.6566 15.72403228685860 CXO 1 25867U 99040B 10303.91666667 .00000504 00000-0 00000+0 0 5314 2 25867 067.8551 046.3118 8358500 275.5285 357.7704 00.37810032 6900 ____________________________________________________________________ These 2-Line ...Continue Reading

[list_settings.list_name] Current TLEs

November 6th 2010 PST

HST 1 20580U 90037B 10307.67721778 .00000548 00000-0 29018-4 0 6718 2 20580 028.4691 049.1646 0003439 240.8916 119.1353 15.01080128925731 ISS (ZARYA) 1 25544U 98067A 10309.29392286 .00023572 00000-0 17780-3 0 2161 2 25544 051.6455 228.5868 0007846 158.6381 345.1919 15.72331274685662 CXO 1 25867U 99040B 10303.91666667 .00000504 00000-0 00000+0 0 5314 2 25867 067.8551 046.3118 8358500 275.5285 357.7704 00.37810032 6900 ____________________________________________________________________ These 2-Line ...Continue Reading

[list_settings.list_name] Current TLEs

November 5th 2010 PST

HST 1 20580U 90037B 10307.67721778 .00000548 00000-0 29018-4 0 6718 2 20580 028.4691 049.1646 0003439 240.8916 119.1353 15.01080128925731 ISS (ZARYA) 1 25544U 98067A 10308.39661965 .00022422 00000-0 16969-3 0 2143 2 25544 051.6460 233.1826 0008137 156.0563 305.3298 15.72283863685525 CXO 1 25867U 99040B 10303.91666667 .00000504 00000-0 00000+0 0 5314 2 25867 067.8551 046.3118 8358500 275.5285 357.7704 00.37810032 6900 ____________________________________________________________________ These 2-Line ...Continue Reading

[list_settings.list_name] Current TLEs

November 4th 2010 PST

HST 1 20580U 90037B 10306.67989838 .00000530 00000-0 27664-4 0 6705 2 20580 028.4690 055.6767 0003486 230.5496 129.4715 15.01079224925581 ISS (ZARYA) 1 25544U 98067A 10307.37899541 .00022323 00000-0 16930-3 0 2040 2 25544 051.6457 238.3949 0008122 153.6729 303.9402 15.72236542685360 CXO 1 25867U 99040B 10303.91666667 .00000504 00000-0 00000+0 0 5314 2 25867 067.8551 046.3118 8358500 275.5285 357.7704 00.37810032 6900 ____________________________________________________________________ These 2-Line ...Continue Reading

[list_settings.list_name] Current TLEs

November 3rd 2010 PST

HST 1 20580U 90037B 10303.62145540 .00000634 00000-0 35559-4 0 6696 2 20580 028.4688 075.6451 0003534 198.3625 161.6810 15.01077501925129 ISS (ZARYA) 1 25544U 98067A 10306.42610692 .00022759 00000-0 17280-3 0 1976 2 25544 051.6457 243.2744 0008369 150.3460 310.3217 15.72194896685212 CXO 1 25867U 99040B 10303.91666667 .00000504 00000-0 00000+0 0 5314 2 25867 067.8551 046.3118 8358500 275.5285 357.7704 00.37810032 6900 ____________________________________________________________________ These 2-Line ...Continue Reading

[list_settings.list_name] Current TLEs

November 2nd 2010 PST

HST 1 20580U 90037B 10303.62145540 .00000634 00000-0 35559-4 0 6696 2 20580 028.4688 075.6451 0003534 198.3625 161.6810 15.01077501925129 ISS (ZARYA) 1 25544U 98067A 10305.47368179 .00022057 00000-0 16795-3 0 1881 2 25544 051.6460 248.1526 0008433 146.4463 320.0324 15.72148338685069 CXO 1 25867U 99040B 10303.91666667 .00000504 00000-0 00000+0 0 5314 2 25867 067.8551 046.3118 8358500 275.5285 357.7704 00.37810032 6900 ____________________________________________________________________ These 2-Line ...Continue Reading

[list_settings.list_name] Current TLEs

November 1st 2010 PST

HST 1 20580U 90037B 10303.62145540 .00000634 00000-0 35559-4 0 6696 2 20580 028.4688 075.6451 0003534 198.3625 161.6810 15.01077501925129 ISS (ZARYA) 1 25544U 98067A 10304.39994757 .00026422 00000-0 20051-3 0 1800 2 25544 051.6452 253.6540 0008503 142.7963 002.6382 15.72106345684898 CXO 1 25867U 99040B 10303.91666667 .00000504 00000-0 00000+0 0 5314 2 25867 067.8551 046.3118 8358500 275.5285 357.7704 00.37810032 6900 ____________________________________________________________________ These 2-Line ...Continue Reading

[list_settings.list_name] Current TLEs

October 31st 2010 PST

HST 1 20580U 90037B 10300.09759300 .00000718 00000-0 41998-4 0 6685 2 20580 028.4686 098.6536 0003467 162.6448 197.4276 15.01074509924596 ISS (ZARYA) 1 25544U 98067A 10303.20078704 .00020354 00000-0 15605-3 0 1733 2 25544 051.6457 259.7917 0008679 138.1882 056.0735 15.72042387684701 CXO 1 25867U 99040B 10303.91666667 .00000504 00000-0 00000+0 0 5314 2 25867 067.8551 046.3118 8358500 275.5285 357.7704 00.37810032 6900 ____________________________________________________________________ These 2-Line ...Continue Reading

[list_settings.list_name] Current TLEs

October 30th 2010 PST

HST 1 20580U 90037B 10300.09759300 .00000718 00000-0 41998-4 0 6685 2 20580 028.4686 098.6536 0003467 162.6448 197.4276 15.01074509924596 ISS (ZARYA) 1 25544U 98067A 10302.36561338 .00017353 00000-0 13399-3 0 1686 2 25544 051.6470 264.0662 0008627 133.4449 011.1436 15.72003660684578 CXO 1 25867U 99040B 10301.50000000 .00000433 00000-0 00000+0 0 5300 2 25867 067.9193 046.3798 8319142 275.6100 028.6563 00.37790288 6898 ____________________________________________________________________ These 2-Line ...Continue Reading

[list_settings.list_name] Current TLEs

October 29th 2010 PST

HST 1 20580U 90037B 10300.09759300 .00000718 00000-0 41998-4 0 6685 2 20580 028.4686 098.6536 0003467 162.6448 197.4276 15.01074509924596 ISS (ZARYA) 1 25544U 98067A 10301.34964074 .00014299 00000-0 11147-3 0 1659 2 25544 051.6470 269.2682 0008376 129.5440 021.6312 15.71962611684416 CXO 1 25867U 99040B 10301.25000000 .00000427 00000-0 10000-3 0 5298 2 25867 067.8438 046.5228 8352586 275.5056 354.6819 00.37803400 6894 ____________________________________________________________________ These 2-Line ...Continue Reading
  • This mailing list is a public mailing list - anyone may join or leave, at any time.
  • This mailing list is announce-only.

International Space Station (ISS) / Hubble Space Telescope (HST) / Chandra X-Ray Observatory Orbital Data via EMAIL

Privacy Policy:

Private list